Hourly Weather Roundup
Issued by NWS Central Illinois

Home | Current Version | Previous Version | Text Only | Print | Product List | Glossary On
Versions: 1 2 3 4 5 6 7 8 9 10 11 12 13 14 15 16 17 18 19 20 21 22 23 24 25 26 27 28 29 30 31 32 33 34 35 36 37 38 39 40 41 42 43 44 45 46 47 48 49 50
000
NZUS43 KILX 262010
HWRILX

AREA WEATHER ROUNDUP
NATIONAL WEATHER SERVICE, LINCOLN IL
300 PM CDT TUE AUG 26 2014


CITY           SKY/WX    TMP DP  RH WIND       PRES   REMARKS
BLOOMINGTON    MOSUNNY   88  76  67 E5        30.09S HX  99
CHAMPAIGN      MOSUNNY   89  78  70 NW6       30.08F HX 103
DECATUR        PTSUNNY   90  77  65 W7        30.07F HX 103
FLORA          SUNNY     91  73  55 CALM      30.07F HX  98
GALESBURG      MOSUNNY   87  72  61 N5        30.09S HX  92
JACKSONVILLE   MOSUNNY   91  77  63 CALM      30.07F HX 104
LACON          SUNNY     85  71  62 E3        30.06S HX  90
LAWRENCEVILLE  MOSUNNY   92  76  59 NE7       30.07F HX 104
LITCHFIELD     SUNNY     91  76  62 CALM      30.07F HX 102
$$


CITY           SKY/WX    TMP DP  RH WIND       PRES   REMARKS
LINCOLN        PTSUNNY   89  75  64 CALM      30.03S HX  99
MACOMB         PTSUNNY   85  73  66 CALM      30.09F HX  92
MATTOON        MOSUNNY   90  75  61 SW5       30.07F HX 100
MT CARMEL AP   MOSUNNY   93  73  52 CALM      30.07F HX 102
OLNEY-NOBLE AP SUNNY     91  75  59 CALM      30.07F HX 102
PARIS          SUNNY     91  76  59 CALM      30.08F HX 103
PEORIA         MOSUNNY   88  74  63 SE3       30.06F HX  96
PONTIAC        SUNNY     88  75  66 E3        30.08F HX  97
RANTOUL        PTSUNNY   89  74  60 N5        30.08F HX  97
ROBINSON       SUNNY     94  74  51 CALM      30.08F HX 103
SPRINGFIELD    PTSUNNY   92  76  59 VRB5      30.07F HX 104
TAYLORVILLE    PTSUNNY   88  77  70 W3        30.07F HX 100
$$

...REGIONAL REPORTS...


CITY           SKY/WX    TMP DP  RH WIND       PRES   REMARKS
CHICAGO O`HARE MOSUNNY   80  66  62 SE3       30.09S HX  82
KANKAKEE       MOSUNNY   82  73  73 E9        30.09S HX  87
MOLINE         SUNNY     82  64  54 NE7       30.10F HX  83
MOUNT VERNON   MOSUNNY   91  73  55 CALM      30.07F HX 100
PITTSFIELD     MOSUNNY   89  75  63 SE3       30.08F HX  99
QUINCY         MOSUNNY   86  74  67 SE5       30.06F HX  94
ROCKFORD       MOSUNNY   78  63  59 NW6       30.13R HX  80
$$


CITY           SKY/WX    TMP DP  RH WIND       PRES   REMARKS
BURLINGTON     PTSUNNY   85  72  65 N8        30.09F HX  91
CEDAR RAPIDS   SUNNY     80  63  55 VRB5      30.12F HX  81
DES MOINES     MOSUNNY   79  63  57 E6        30.13S HX  80
KIRKSVILLE     MOSUNNY   86  69  56 NE3       30.11F HX  90
OTTUMWA        MOSUNNY   79  66  64 N6        30.11F HX  81
ST LOUIS       PTSUNNY   97  76  50 W5        30.06F HX 110
$$


CITY           SKY/WX    TMP DP  RH WIND       PRES   REMARKS
TERRE HAUTE    SUNNY     90  74  59 S6        30.08F HX  99
EVANSVILLE     PTSUNNY   93  72  50 CALM      30.07F HX 101
INDIANAPOLIS   PTSUNNY   92  67  43 VRB5      30.09F HX  95
LAFAYETTE      LGT RAIN  70  69  97 SE8       30.12F
MADISON        MOSUNNY   76  57  51 VRB6      30.12F
MILWAUKEE      MOSUNNY   78  63  59 W8        30.09F HX  80
$$




USA.gov is the U.S. government's official web portal to all federal, state and local government web resources and services.